YAMAL 401

Last updated on Jan. 15, 2021, 6:31 a.m. UTC

1 40345U 14082A   21014.89933955 -.00000235  00000-0  00000-0 0  9991
2 40345   0.0256 105.0969 0001884 322.4053 100.7493  1.00269391 22077
UTC
Height (km)
Latitude
Longitude
Inclination
Orbital Period
UTC large
Height (km)
Speed (km/s)
/
Latitude / Longitude
Inclination (degrees)
Orbital Period (minutes)
Azimuth
Elevation
Range (km)
Doppler Factor
iOS Compass Heading
iOS Angle

Next 30 passes for location: Hong Kong

Rise time Rise Azimuth (degrees) Set time Set Azimuth (degrees) Duration Max altitude (degrees)

No matching passes for this satellites